Racine, WI

2:36 PM CDT on July 21, 2017 (GMT -0500)
Batten

Weather History for KRAC - December, 2012

Change the Weather History Date:

Friday, December 21, 2012

  Actual Average Record
Temperature  
Mean Temperature 26 °F -  
Max Temperature 34 °F 32 °F 56 °F (1967)
Min Temperature 18 °F 17 °F -16 °F (1989)
Degree Days  
Heating Degree Days 38    
Moisture  
Dew Point 22 °F    
Average Humidity 81    
Maximum Humidity 89    
Minimum Humidity 72    
Precipitation  
Precipitation 0.00 in - - ()
Sea Level Pressure  
Sea Level Pressure 29.81 in    
Wind  
Wind Speed 20 mph (NW)    
Max Wind Speed 28 mph    
Max Gust Speed 40 mph    
Visibility 8 miles    
Events Snow    
Averages and records for this station are not official NWS values.
T = Trace of Precipitation, MM = Missing Value Source: NWS Daily Summary

Daily Weather History Graph

Daily Weather History Graph

Search for Another Location

Airport or City:

Trip Planner

Search our weather history database for the weather conditions in past years. The results will help you decide how hot, cold, wet, or windy it might be!

Date:

Astronomy

Dec. 21, 2012 Rise Set
Actual Time 7:18 AM CST 4:20 PM CST
Civil Twilight 6:46 AM CST 4:52 PM CST
Nautical Twilight 6:10 AM CST 5:28 PM CST
Astronomical Twilight 5:36 AM CST 6:03 PM CST
Moon 12:12 PM CST 12:59 AM CST
Length of Visible Light 10h 06m
Length of Day
9h 01m
Waxing Gibbous, 65% of the Moon is Illuminated
Dec 21
Waxing Gibbous
Dec 28
Full
Jan 4
Last Quarter
Jan 11
New
Jan 18
First Quarter

Hourly Weather History & Observations

Time (CST) Temp. Windchill Dew Point Humidity Pressure Visibility Wind Dir Wind Speed Gust Speed Precip Events Conditions
12:07 AM 33.8 °F 22.5 °F 30.2 °F 87% 29.42 in 1.2 mi NNW 19.6 mph 35.7 mph 0.00 in Snow Light Snow
12:27 AM 33.8 °F 22.2 °F 30.2 °F 87% 29.43 in 2.5 mi NNW 20.7 mph 33.4 mph 0.00 in Snow Light Snow
12:34 AM 33.8 °F 21.6 °F 30.2 °F 87% 29.44 in 4.0 mi NW 23.0 mph 32.2 mph 0.00 in Snow Light Snow
12:53 AM 33.1 °F 20.1 °F 30.0 °F 89% 29.47 in 5.0 mi NNW 25.3 mph 39.1 mph 0.00 in Snow Light Snow
1:19 AM 33.8 °F 21.0 °F 28.4 °F 81% 29.48 in 7.0 mi NNW 25.3 mph 36.8 mph 0.00 in Snow Light Snow
1:38 AM 33.8 °F 20.5 °F 28.4 °F 81% 29.49 in 8.0 mi NNW 27.6 mph 40.3 mph 0.00 in Snow Light Snow
1:53 AM 34.0 °F 21.8 °F 28.9 °F 82% 29.53 in 9.0 mi NNW 23.0 mph 34.5 mph 0.00 in   Overcast
2:53 AM 32.0 °F 19.8 °F 28.0 °F 85% 29.59 in 4.0 mi NW 20.7 mph 28.8 mph 0.00 in Snow Light Snow
3:53 AM 30.0 °F 18.3 °F 27.0 °F 88% 29.62 in 3.0 mi NW 17.3 mph 33.4 mph 0.00 in Snow Light Snow
4:04 AM 30.2 °F 17.1 °F 26.6 °F 86% 29.61 in 2.5 mi NW 21.9 mph 35.7 mph 0.00 in Snow Light Snow
4:21 AM 30.2 °F 16.5 °F 26.6 °F 86% 29.62 in 1.8 mi NW 24.2 mph 34.5 mph 0.00 in Snow Light Snow
4:29 AM 30.2 °F 18.5 °F 26.6 °F 86% 29.63 in 2.5 mi NW 17.3 mph 34.5 mph 0.00 in Snow Light Snow
4:37 AM 30.2 °F 17.1 °F 24.8 °F 80% 29.63 in 4.0 mi NW 21.9 mph 38.0 mph 0.00 in Snow Light Snow
4:53 AM 28.9 °F 14.5 °F 24.1 °F 82% 29.67 in 7.0 mi WNW 25.3 mph 39.1 mph 0.00 in Snow Light Snow
5:36 AM 28.4 °F 15.1 °F 23.0 °F 80% 29.68 in 10.0 mi WNW 20.7 mph 33.4 mph 0.00 in   Mostly Cloudy
5:53 AM 28.0 °F 14.6 °F 21.9 °F 78% 29.72 in - NW 20.7 mph 36.8 mph 0.00 in   Mostly Cloudy
6:39 AM 28.4 °F 15.1 °F 23.0 °F 80% 29.73 in 10.0 mi NW 20.7 mph 31.1 mph N/A   Overcast
6:53 AM 28.0 °F 16.5 °F 23.0 °F 81% 29.76 in 10.0 mi NW 15.0 mph 29.9 mph N/A   Overcast
7:53 AM 28.0 °F 13.9 °F 21.9 °F 78% 29.81 in - NW 23.0 mph 32.2 mph N/A   Overcast
8:53 AM 27.0 °F 14.3 °F 21.0 °F 78% 29.85 in 10.0 mi WNW 17.3 mph 31.1 mph N/A   Mostly Cloudy
9:53 AM 27.0 °F 13.2 °F 21.0 °F 78% 29.88 in 10.0 mi NW 20.7 mph 33.4 mph N/A   Mostly Cloudy
10:53 AM 28.0 °F 15.3 °F 19.9 °F 72% 29.90 in - NW 18.4 mph 31.1 mph N/A   Mostly Cloudy
11:53 AM 27.0 °F 14.7 °F 19.9 °F 75% 29.93 in 10.0 mi NW 16.1 mph 31.1 mph N/A   Overcast
12:53 PM 27.0 °F 13.5 °F 19.9 °F 75% 29.96 in 10.0 mi NW 19.6 mph 31.1 mph N/A   Overcast
1:53 PM 26.1 °F 12.0 °F 19.9 °F 78% 29.98 in 10.0 mi NW 20.7 mph 28.8 mph N/A   Mostly Cloudy
2:53 PM 26.1 °F 14.0 °F 19.0 °F 75% 30.02 in 10.0 mi NW 15.0 mph 25.3 mph N/A   Overcast
3:53 PM 25.0 °F 11.7 °F 19.0 °F 78% 30.06 in 10.0 mi WNW 17.3 mph 21.9 mph N/A   Overcast
4:53 PM 24.1 °F 11.5 °F 18.0 °F 77% 30.10 in 10.0 mi WNW 15.0 mph 21.9 mph N/A   Overcast
5:21 PM 23.0 °F 11.1 °F 17.6 °F 80% 30.09 in 10.0 mi WNW 12.7 mph 18.4 mph N/A   Mostly Cloudy
5:53 PM 23.0 °F 11.1 °F 17.1 °F 78% 30.13 in 10.0 mi WNW 12.7 mph - N/A   Clear
6:53 PM 21.0 °F 8.6 °F 16.0 °F 81% 30.14 in 10.0 mi WNW 12.7 mph - N/A   Clear
7:53 PM 21.0 °F 9.3 °F 15.1 °F 78% 30.16 in 10.0 mi WNW 11.5 mph - N/A   Clear
8:53 PM 21.0 °F 10.6 °F 15.1 °F 78% 30.17 in 10.0 mi NW 9.2 mph - N/A   Clear
9:53 PM 19.9 °F 10.1 °F 14.0 °F 78% 30.18 in 10.0 mi WNW 8.1 mph - N/A   Clear
10:53 PM 19.0 °F 10.0 °F 14.0 °F 81% 30.18 in 10.0 mi NW 6.9 mph - N/A   Clear
11:53 PM 18.0 °F 8.7 °F 12.9 °F 81% 30.20 in 10.0 mi NW 6.9 mph - N/A   Clear